TimeCST,TemperatureF,Dew PointF,Humidity,Sea Level PressureIn,VisibilityMPH,Wind Direction,Wind SpeedMPH,Gust SpeedMPH,PrecipitationIn,Events,Conditions,WindDirDegrees,DateUTC
12:15 AM,32.0,32.0,100,30.50,7.0,Calm,Calm,-,N/A,,Clear,0,2012-11-13 06:15:00
12:35 AM,31.8,31.8,100,30.51,7.0,Calm,Calm,-,N/A,,Clear,0,2012-11-13 06:35:00
12:55 AM,31.5,31.5,100,30.50,7.0,Calm,Calm,-,N/A,,Clear,0,2012-11-13 06:55:00
1:15 AM,31.1,31.1,100,30.50,7.0,Calm,Calm,-,N/A,,Clear,0,2012-11-13 07:15:00
1:35 AM,31.3,31.3,100,30.51,7.0,Calm,Calm,-,N/A,,Clear,0,2012-11-13 07:35:00
1:55 AM,30.9,30.9,100,30.51,7.0,Calm,Calm,-,N/A,,Clear,0,2012-11-13 07:55:00
2:15 AM,31.1,31.1,100,30.51,10.0,Calm,Calm,-,N/A,,Clear,0,2012-11-13 08:15:00
2:35 AM,30.9,30.9,100,30.51,10.0,Calm,Calm,-,N/A,,Clear,0,2012-11-13 08:35:00
2:55 AM,30.9,30.9,100,30.52,10.0,Calm,Calm,-,N/A,,Clear,0,2012-11-13 08:55:00
3:15 AM,30.9,30.9,100,30.52,10.0,Calm,Calm,-,N/A,,Clear,0,2012-11-13 09:15:00
3:35 AM,31.1,31.1,100,30.52,10.0,Calm,Calm,-,N/A,,Clear,0,2012-11-13 09:35:00
3:55 AM,31.5,31.5,100,30.52,10.0,Calm,Calm,-,N/A,,Clear,0,2012-11-13 09:55:00
4:15 AM,31.5,31.5,100,30.52,10.0,Calm,Calm,-,N/A,,Clear,0,2012-11-13 10:15:00
4:35 AM,31.5,31.5,100,30.52,10.0,Calm,Calm,-,N/A,,Clear,0,2012-11-13 10:35:00
4:55 AM,30.9,30.9,100,30.53,10.0,Calm,Calm,-,N/A,,Clear,0,2012-11-13 10:55:00
5:15 AM,30.6,30.6,100,30.53,10.0,Calm,Calm,-,N/A,,Clear,0,2012-11-13 11:15:00
6:15 AM,30.6,30.6,100,30.53,10.0,Calm,Calm,-,N/A,,Clear,0,2012-11-13 12:15:00
6:35 AM,30.2,30.2,100,30.53,10.0,Calm,Calm,-,N/A,,Clear,0,2012-11-13 12:35:00
6:55 AM,30.0,30.0,100,30.54,10.0,Calm,Calm,-,N/A,,Clear,0,2012-11-13 12:55:00
7:15 AM,31.1,31.1,100,30.54,10.0,Calm,Calm,-,N/A,,Clear,0,2012-11-13 13:15:00
7:35 AM,32.4,32.4,100,30.55,10.0,Calm,Calm,-,N/A,,Clear,0,2012-11-13 13:35:00
7:55 AM,34.7,34.3,99,30.56,10.0,Calm,Calm,-,N/A,,Clear,0,2012-11-13 13:55:00
8:15 AM,37.9,34.0,86,30.56,10.0,NNE,4.6,-,N/A,,Clear,20,2012-11-13 14:15:00
8:35 AM,40.8,34.5,78,30.56,10.0,NE,3.5,-,N/A,,Clear,40,2012-11-13 14:35:00
8:55 AM,42.8,34.5,73,30.57,10.0,NE,4.6,-,N/A,,Clear,40,2012-11-13 14:55:00
9:15 AM,45.1,32.4,61,30.57,10.0,NE,5.8,-,N/A,,Clear,50,2012-11-13 15:15:00
9:35 AM,47.5,31.6,54,30.57,10.0,NE,6.9,-,N/A,,Clear,50,2012-11-13 15:35:00
9:55 AM,49.1,28.8,45,30.57,10.0,NE,8.1,17.3,N/A,,Clear,40,2012-11-13 15:55:00
10:15 AM,50.9,28.2,42,30.55,10.0,ENE,6.9,-,N/A,,Clear,70,2012-11-13 16:15:00
10:35 AM,51.8,23.2,33,30.55,10.0,ENE,8.1,-,N/A,,Clear,70,2012-11-13 16:35:00
10:55 AM,52.7,22.1,30,30.54,10.0,East,8.1,-,N/A,,Clear,100,2012-11-13 16:55:00
11:15 AM,53.4,22.3,30,30.52,10.0,NE,9.2,-,N/A,,Clear,40,2012-11-13 17:15:00
11:35 AM,54.1,22.5,29,30.51,10.0,NNE,10.4,16.1,N/A,,Clear,20,2012-11-13 17:35:00
11:55 AM,54.1,22.1,29,30.49,10.0,NNE,11.5,18.4,N/A,,Clear,30,2012-11-13 17:55:00
12:15 PM,54.5,21.4,28,30.47,10.0,NE,12.7,16.1,N/A,,Clear,40,2012-11-13 18:15:00
12:55 PM,55.0,22.8,29,30.44,10.0,NE,6.9,17.3,N/A,,Clear,40,2012-11-13 18:55:00
1:35 PM,56.5,22.6,27,30.42,10.0,NNE,10.4,-,N/A,,Clear,30,2012-11-13 19:35:00
1:55 PM,55.9,22.5,27,30.42,10.0,NE,6.9,-,N/A,,Clear,40,2012-11-13 19:55:00
2:15 PM,56.5,23.2,28,30.41,10.0,NNE,9.2,17.3,N/A,,Clear,30,2012-11-13 20:15:00
2:35 PM,55.8,22.1,27,30.41,10.0,NNE,8.1,-,N/A,,Clear,30,2012-11-13 20:35:00
2:55 PM,56.7,23.4,28,30.40,10.0,NNE,8.1,-,N/A,,Clear,20,2012-11-13 20:55:00
3:15 PM,56.3,23.2,28,30.40,10.0,North,10.4,-,N/A,,Clear,10,2012-11-13 21:15:00
3:35 PM,56.1,22.8,28,30.40,10.0,NE,8.1,-,N/A,,Clear,40,2012-11-13 21:35:00
3:55 PM,54.7,23.0,29,30.41,10.0,NNE,8.1,-,N/A,,Clear,20,2012-11-13 21:55:00
4:15 PM,53.8,24.1,32,30.41,10.0,NE,4.6,-,N/A,,Clear,40,2012-11-13 22:15:00
4:35 PM,52.5,27.1,38,30.41,10.0,Calm,Calm,-,N/A,,Clear,0,2012-11-13 22:35:00
4:55 PM,48.7,34.3,58,30.41,10.0,Calm,Calm,-,N/A,,Clear,0,2012-11-13 22:55:00
5:15 PM,45.1,37.2,74,30.40,10.0,Calm,Calm,-,N/A,,Clear,0,2012-11-13 23:15:00
5:35 PM,43.7,37.4,78,30.40,10.0,Calm,Calm,-,N/A,,Clear,0,2012-11-13 23:35:00
5:55 PM,41.9,37.6,85,30.41,10.0,Calm,Calm,-,N/A,,Clear,0,2012-11-13 23:55:00
6:15 PM,41.0,37.6,88,30.41,10.0,Calm,Calm,-,N/A,,Clear,0,2012-11-14 00:15:00
6:35 PM,40.5,37.4,89,30.41,10.0,Calm,Calm,-,N/A,,Clear,0,2012-11-14 00:35:00
6:55 PM,39.2,37.2,93,30.42,10.0,Calm,Calm,-,N/A,,Clear,0,2012-11-14 00:55:00
7:15 PM,38.7,37.2,95,30.42,10.0,Calm,Calm,-,N/A,,Clear,0,2012-11-14 01:15:00
7:35 PM,39.7,35.8,86,30.42,10.0,Calm,Calm,-,N/A,,Clear,0,2012-11-14 01:35:00
7:55 PM,37.9,37.6,99,30.41,10.0,Calm,Calm,-,N/A,,Clear,0,2012-11-14 01:55:00
8:15 PM,37.6,37.0,98,30.42,10.0,Calm,Calm,-,N/A,,Clear,0,2012-11-14 02:15:00
8:35 PM,38.1,37.4,97,30.42,10.0,Calm,Calm,-,N/A,,Clear,0,2012-11-14 02:35:00
8:55 PM,37.4,37.4,100,30.42,10.0,Calm,Calm,-,N/A,,Clear,0,2012-11-14 02:55:00
9:15 PM,36.9,36.9,100,30.44,10.0,Calm,Calm,-,N/A,,Clear,0,2012-11-14 03:15:00
9:35 PM,36.7,36.0,97,30.43,10.0,Calm,Calm,-,N/A,,Clear,0,2012-11-14 03:35:00
9:55 PM,40.6,35.6,82,30.43,10.0,Calm,Calm,-,N/A,,Clear,0,2012-11-14 03:55:00
10:15 PM,41.4,34.5,77,30.43,10.0,Calm,Calm,-,N/A,,Clear,0,2012-11-14 04:15:00
10:35 PM,40.3,35.2,82,30.42,10.0,Calm,Calm,-,N/A,,Clear,0,2012-11-14 04:35:00
10:55 PM,39.0,35.4,87,30.43,10.0,Calm,Calm,-,N/A,,Clear,0,2012-11-14 04:55:00
11:15 PM,41.5,33.3,72,30.43,10.0,NE,3.5,-,N/A,,Clear,40,2012-11-14 05:15:00
11:35 PM,38.7,34.2,84,30.42,10.0,Calm,Calm,-,N/A,,Clear,0,2012-11-14 05:35:00
11:55 PM,40.3,34.0,78,30.42,10.0,NNE,3.5,-,N/A,,Clear,20,2012-11-14 05:55:00